Location: Nelson
(47.1935°N, 121.0537°W)
Time: 06:31:51
(UTC+00:00)

BlueWalker 3 - Pass Details

Date: 06 December 2022
Orbit: 499 x 517 km, 53.2° (Epoch: 27 January)

Event Time Altitude Azimuth Distance (km) Brightness Sun altitude
Rises 02:01:02 0° 296° (WNW) 2,635 6.4 -17.3°
Reaches altitude 10° 02:03:19 10° 303° (WNW) 1,743 5.3 -17.6°
Maximum altitude 02:07:07 45° 17° (NNE) 709 2.4 -18.3°
Enters shadow 02:07:38 42° 41° (NE) 742 2.4 -18.4°
